Location: Unspecified
(0.0000°N, 0.0000°E)
Time: 01:57:27
(UTC+00:00)

AO-85 - Visible Passes

Search period start: 30 November 2021 00:00
Search period end: 10 December 2021 00:00
Orbit: 521 x 762 km, 64.8° (Epoch: 12 March)

Date Brightness Start Highest point End Pass type
(mag) Time Alt. Az. Time Alt. Az. Time Alt. Az.
30 Nov ? 04:33:02 19° NNW 04:36:19 79° ENE 04:40:39 10° SSE visible
01 Dec ? 03:20:08 13° ENE 03:20:17 13° ENE 03:22:19 10° E visible
01 Dec ? 04:57:47 17° WNW 05:00:29 29° WSW 05:04:14 10° S visible
02 Dec ? 03:44:49 41° ENE 03:44:49 41° ENE 03:48:45 10° SE visible
03 Dec ? 04:09:24 50° SW 04:09:24 50° SW 04:13:04 10° S visible
04 Dec ? 02:56:16 11° ESE 02:56:16 11° ESE 02:56:25 10° ESE visible
04 Dec ? 04:33:55 15° SW 04:33:55 15° SW 04:35:38 10° SSW visible
05 Dec ? 03:20:40 16° SSE 03:20:40 16° SSE 03:21:32 10° SSE visible
06 Dec ? 03:44:59 10° S 03:44:59 10° S 03:45:05 10° S visible
